Location: *
(46.1200°N, 11.2700°E)
Time: 20:48:36
(UTC+00:00)

SAR-Lupe-4 - Pass Details

Date: 02 March 2021
Orbit: 481 x 485 km, 98.2° (Epoch: 26 March)

Event Time Altitude Azimuth Distance (km) Brightness Sun altitude
Rises 18:30:07 0° 9° (N) 2,554 7.2 -15.9°
Reaches altitude 10° 18:32:12 10° 5° (N) 1,670 6.3 -16.3°
Maximum altitude 18:35:42 54° 288° (WNW) 595 4.3 -16.9°
Drops below altitude 10° 18:39:11 10° 210° (SSW) 1,657 6.5 -17.5°
Sets 18:41:15 0° 206° (SSW) 2,532 7.4 -17.8°
